Погода в Раздолинске

Россия / Красноярский край     58°25′03″N   94°37′14″E
темп.,
°C
ветер,
м/с
пор.,
м/с
влажн.,
%
обл.,
%
осадки,
мм/ч
давл.,
гПа
погр.,
м
29 ноября, пн
пн2901:00−6зюз61494100 0.9 1021900
04:00−6зюз61393100 0.5 10221019
07:00−9зсз6158127 0.9 1025738
10:00−11з51586100 0.0 1028615
13:00−10з41484100 0.0 1029682
16:00−10з31287100 0.0 1029524
19:00−11ююз1497100 0.1 1029133
22:00−9ююз2896100 0.4 1027394
30 ноября, вт
вт3001:00−9юз31096100 0.8 1025490
04:00−8юз41195100 0.2 1023568
07:00−9юз51394100 0.3 1021587
10:00−8юз61493100 0.1 1020651
13:00−8зюз61588100 0.1 1018657
16:00−8зюз51493100 0.3 1017805
19:00−8зюз51394100 0.6 1017692
22:00−8зюз51494100 0.4 1016729
1 декабря, ср
ср101:00−7зюз51494100 0.9 1016873
04:00−8з61491100 0.3 1016885
07:00−8з61490100 0.5 10181028
10:00−7з5138895 0.2 10201133
13:00−10з41280100 0.2 1023591
16:00−12зюз1288100 0.0 102556
19:00−11ююз1191100 0.0 102551
22:00−11ююв1396100 0.9 1022129
2 декабря, чт
чт201:00−9ююз31096100 2.6 1019530
04:00−8юз41395100 1.3 1017681
07:00−8зюз41194100 1.5 1016596
10:00−6зюз41195100 0.3 1016603
13:00−6зюз41295100 0.7 1015634
16:00−6зюз51495100 0.6 1014669
19:00−4зюз5139499 1.0 1014666
22:00−5зюз51394100 0.1 1014559
3 декабря, пт
пт301:00−6зюз51491100 0.1 1014508
04:00−6юз41493100 0.0 1013463
07:00−6юз41392100 0.0 1011396
10:00−6юз31391100 0.0 1010385
13:00−5ююз21294100 0.0 1008422
16:00−5ю2994100 0.0 1006244
19:00−3ююз31693100 0.2 1002529
22:00−1юз71896100 0.9 9991215